[Iaude] MPEC M101: 2024 MX [a=1.56,e=0.27,i=24.3,H=23.1]

mpec at cfa.harvard.edu mpec at cfa.harvard.edu
Fri Jun 28 06:14:57 EDT 2024


M.P.E.C. 2024-M101                                Issued 2024 June 28, 10:13 UT

     The Minor Planet Electronic Circulars contain information on unusual
         minor planets, routine data on comets and natural satellites,
         and occasional editorial announcements.  They are published
    on behalf of Division F of the International Astronomical Union by the
          Minor Planet Center, Smithsonian Astrophysical Observatory,
                          Cambridge, MA 02138, U.S.A.
			  
             Prepared using the Tamkin Foundation Computer Network

                              MPC at CFA.HARVARD.EDU
            URL https://www.minorplanetcenter.net/    ISSN 1523-6714

                                    2024 MX                                     


Observations:
     K24M00X* C2024 06 26.29023315 18 21.484-30 12 56.92         20.68wXEM101F51
     K24M00X  C2024 06 26.30256415 18 22.937-30 11 16.15         21.07wXEM101F51
     K24M00X  C2024 06 26.31488415 18 24.387-30 09 35.45         21.02wXEM101F51
     K24M00X |C2024 06 26.97742915 19 59.070-28 38 20.40         21.3 GVEM101807
     K24M00X |C2024 06 26.98293015 19 59.760-28 37 36.30         21.1 GVEM101807
     K24M00X |C2024 06 26.98843015 20 00.410-28 36 50.60         21.3 GVEM101807
     K24M00X  C2024 06 27.34681915 20 48.198-27 48 17.60         21.51GVEM101F52
     K24M00X  C2024 06 27.34764515 20 48.274-27 48 10.41         21.32GVEM101F52
     K24M00X KC2024 06 27.36763215 20 52.500-27 44 35.77         20.6 GVEM101474
     K24M00X KC2024 06 27.37137215 20 52.937-27 44 05.46         20.5 GVEM101474
     K24M00X KC2024 06 27.37386115 20 53.280-27 43 44.83         20.7 GVEM101474
     K24M00X KC2024 06 28.18334 15 22 46.37 -25 53 01.9          21.0 RVEM101291
     K24M00X KC2024 06 28.18482 15 22 46.44 -25 52 48.8          21.0 RVEM101291

Observer details:
291 LPL/Spacewatch II.  Observer R. A. Mastaler.  1.8-m f/2.7 reflector + CCD.
474 Mount John Observatory, Lake Tekapo.  Observers A. C. Gilmore, P. M.
    Kilmartin.  Measurer P. M. Kilmartin.  1.0-m f/7.7 Reflector + CCD.
807 Cerro Tololo Observatory, La Serena.  Observers T. Linder, R. Holmes.
    0.61-m f/6.8 Ritchey-Chretien + CCD.
F51 Pan-STARRS 1, Haleakala.  Observers J. Herman, T. Lowe, P. Minguez, A.
    Schultz, I. Smith.  Measurers K. Chambers, T. de Boer, J. Fairlamb, H.
    Gao, M. Huber, C.-C. Lin, E. Magnier, Y. Ramanjooloo, R. Wainscoat, R.
    Weryk.  1.8-m Ritchey-Chretien + CCD.
F52 Pan-STARRS 2, Haleakala.  Observers J. Herman, T. Lowe, P. Minguez, A.
    Schultz, I. Smith.  Measurers K. Chambers, T. de Boer, J. Fairlamb, H.
    Gao, M. Huber, C.-C. Lin, E. Magnier, Y. Ramanjooloo, R. Wainscoat, R.
    Weryk.  1.8-m Ritchey-Chretien + CCD.

Orbital elements:
2024 MX                                                  Earth MOID = 0.1327 AU
Epoch 2024 Mar. 31.0 TT = JDT 2460400.5                 MPC                     
M 302.00207              (2000.0)            P               Q                  
n   0.50647182     Peri.   20.31329     +0.36818709     +0.83426155             
a   1.5587119      Node   273.19144     -0.89968630     +0.20833953             
e   0.2710979      Incl.   24.27139     -0.23452681     +0.51049222             
P   1.95           H   23.19          G   0.15           U   8                  
Residuals in seconds of arc
240626 F51  0.0   0.1-    240626 807  0.0   0.3+    240627 474  0.1+  0.1-
240626 F51  0.0   0.0     240627 F52  0.1-  0.1-    240628 291  0.2+  0.0
240626 F51  0.0   0.1+    240627 F52  0.3-  0.3+    240628 291 (1.3-  0.8+)
240626 807  0.1+  0.3+    240627 474  0.1-  0.3+
240626 807  0.3+  0.4-    240627 474  0.4-  0.2-

Ephemeris:
2024 MX                  a,e,i = 1.56, 0.27, 24                  q = 1.1361
Date    TT    R. A. (2000) Decl.     Delta      r    Elong.  Phase     V
2024 05 29    14 27 07.2 -70 22 11   0.3022  1.2239   128.3    40.6    22.6
...
2024 06 13    14 48 51.9 -55 33 33   0.2194  1.1848   136.7    36.0    21.7
...
2024 06 21    15 06 08.4 -41 38 05   0.1902  1.1680   139.8    34.2    21.3
...
2024 06 27    15 20 00.3 -28 35 26   0.1799  1.1575   138.6    35.5    21.2
2024 06 28    15 22 20.5 -26 17 47   0.1793  1.1560   137.9    36.1    21.2
2024 06 29    15 24 40.9 -23 59 28   0.1791  1.1545   137.2    36.7    21.3
...
2024 07 05    15 38 43.5 -10 27 54   0.1846  1.1467   131.1    41.9    21.5
...
2024 07 13    15 57 19.3 +04 45 16   0.2082  1.1396   121.6    49.4    21.9
...
2024 07 28    16 31 16.3 +22 13 38   0.2808  1.1368   108.6    57.8    22.8

A. U. Tomatic                (C) Copyright 2024 MPC           M.P.E.C. 2024-M101





More information about the Iaude mailing list